Location: Gönnheim
(49.4488°N, 8.2383°E)
Time: 01:58:05
(UTC+00:00)

Nadezhda 1 Rocket - Pass Details

Date: 19 May 2025
Orbit: 941 x 1003 km, 83.0° (Epoch: 23 June)

Event Time Altitude Azimuth Distance (km) Brightness Sun altitude
Rises 19:47:58 0° 173° (S) 3,597 6.5 -5.8°
Reaches altitude 10° 19:50:27 10° 170° (S) 2,660 5.8 -6.1°
Maximum altitude 19:56:23 58° 93° (E) 1,102 4.1 -6.8°
Drops below altitude 10° 20:02:26 10° 16° (NNE) 2,711 6.7 -7.5°
Sets 20:05:00 0° 13° (NNE) 3,672 7.5 -7.8°
